Home   Weather   Dillenburg   Past weeks

Flag for Germany Past Weather in Dillenburg, Hesse, Germany — Yesterday and Last 2 Weeks

Now
55 °F

Sunny.


Feels Like: 55 °F
Forecast: 50 / 66 °F
Wind: 3 mph from North

Location: Hessen

Current Time: Sep 27, 2016 at 10:58:17 AM

Latest Report: Sep 27, 2016 at 9:50 AM


Visibility: 10 mi

Pressure: 30.30 "Hg

Humidity: 94%

Dew Point: 54 °F

Location of DillenburgLocation

Past Weather in Dillenburg — Graph

°F

Dillenburg Temperature Yesterday

Maximum temperature yesterday: 61 °F (at 2:50 PM)
Minimum temperature yesterday: 50 °F (at 8:20 AM)
Average temperature yesterday: 57 °F

High & Low Weather Summary for the Past Weeks

 TemperatureHumidityPressure
High82 °F (Sep 13, 3:50 PM)100% (Sep 17, 7:50 AM)30.33 "Hg (Sep 17, 7:50 AM)
Low46 °F (Sep 21, 7:50 AM)39% (Sep 14, 3:50 PM)29.89 "Hg (Sep 15, 12:20 PM)
Average63 °F69%30.10 "Hg
* Reported Sep 12 9:20 AM — Sep 27 9:20 AM, Dillenburg, Weather by CustomWeather, © 2016

Note: Actual official high and low records may vary slightly from our data, if they occured in-between our weather recording intervals... More about our weather records

Advertising

Dillenburg Weather History for the Previous 24 Hours

Scroll right to see more
 ConditionsComfort  
Time TempWeatherWind HumidityBarometerVisibility
9:20 AM
Tue, Sep 27
55 °FSunny.3 mph94%30.30 "Hg10 mi
8:50 AM54 °FSunny.2 mph100%30.30 "Hg10 mi
8:20 AM52 °FPassing clouds.3 mph100%30.27 "HgN/A
7:50 AM52 °FFog.3 mph100%30.27 "HgN/A
8:50 PM
Mon, Sep 26
55 °FPassing clouds.3 mph88%30.24 "HgN/A
8:20 PM55 °FClear.5 mph88%30.24 "Hg10 mi
7:50 PM55 °FPassing clouds.6 mph88%30.21 "HgN/A
7:20 PM57 °FPassing clouds.5 mph77%30.21 "HgN/A
6:50 PM59 °FCool.3 mph77%30.21 "HgN/A
6:20 PM59 °FScattered clouds.1 mph72%30.21 "HgN/A
5:50 PM61 °FScattered clouds.5 mph72%30.21 "HgN/A
5:20 PM61 °FScattered clouds.5 mph72%30.21 "HgN/A
4:50 PM61 °FPartly sunny.3 mph72%30.21 "HgN/A
4:20 PM61 °FPartly sunny.2 mph68%30.21 "HgN/A
3:50 PM61 °FPartly sunny.5 mph72%30.21 "HgN/A
3:20 PM61 °FPartly sunny.3 mph72%30.21 "HgN/A
2:50 PM61 °FBroken clouds.3 mph72%30.21 "HgN/A
2:20 PM59 °FBroken clouds.3 mph72%30.21 "HgN/A
1:50 PM59 °FBroken clouds.2 mph72%30.24 "HgN/A
1:20 PM59 °FBroken clouds.3 mph77%30.21 "HgN/A
12:50 PM59 °FScattered clouds.5 mph77%30.24 "HgN/A
12:20 PM57 °FPartly sunny.5 mph88%30.24 "HgN/A
11:50 AM54 °FPartly sunny.6 mph94%30.24 "HgN/A
11:20 AM52 °FPartly sunny.6 mph100%30.24 "HgN/A
10:50 AM54 °FPartly sunny.6 mph100%30.24 "Hg6 mi
10:20 AM52 °FPartly sunny.7 mph100%30.24 "Hg4 mi
Weather by CustomWeather, © 2016

See weather overviewHow to use our weather pages